Location: Unspecified
(40.7945°N, 111.1337°W)
Time: 13:23:36
(UTC-06:00)

Resurs 1-4 Rocket - Pass Details

Date: 29 March 2019
Orbit: 800 x 813 km, 98.6° (Epoch: 19 October)

Event Time Altitude Azimuth Distance (km) Brightness Sun altitude
Rises 04:41:22 0° 356° (N) 3,329 5.7 -27.9°
Reaches altitude 10° 04:44:32 10° 336° (NNW) 2,390 4.6 -27.4°
Enters shadow 04:45:47 14° 324° (NW) 2,140 4.2 -27.2°
